Change the Weather History Date:

Thursday, October 18, 2012

  Actual Average Record
Temperature  
Mean Temperature 54 °F -  
Max Temperature 60 °F 58 °F 83 °F (1950)
Min Temperature 48 °F 37 °F 20 °F (1976)
Degree Days  
Heating Degree Days 11    
Growing Degree Days 4 (Base 50)    
Moisture  
Dew Point 44 °F    
Average Humidity 70    
Maximum Humidity 94    
Minimum Humidity 41    
Precipitation  
Precipitation 0.37 in - - ()
Sea Level Pressure  
Sea Level Pressure 29.52 in    
Wind  
Wind Speed 13 mph (SW)    
Max Wind Speed 23 mph    
Max Gust Speed 36 mph    
Visibility 9 miles    
Events Rain    
Averages and records for this station are not official NWS values.
T = Trace of Precipitation, MM = Missing Value Source: NWS Daily Summary

Daily Weather History Graph

Daily Weather History Graph

Search for Another Location

Airport or City:

Trip Planner

Search our weather history database for the weather conditions in past years. The results will help you decide how hot, cold, wet, or windy it might be!

Date:

Astronomy

Oct. 18, 2012 Rise Set
Actual Time 7:52 AM EDT 6:49 PM EDT
Civil Twilight 7:24 AM EDT 7:17 PM EDT
Nautical Twilight 6:52 AM EDT 7:49 PM EDT
Astronomical Twilight 6:19 AM EDT 8:22 PM EDT
Moon 11:36 AM EDT (10/18) 9:19 PM EDT (10/18)
Length of Visible Light 11h 53m
Length of Day
10h 56m
Waxing Crescent, 14% of the Moon is Illuminated
Oct 18
Waxing Crescent
Oct 21
First Quarter
Oct 29
Full
Nov 6
Last Quarter
Nov 13
New

Hourly Weather History & Observations

Time (EDT) Temp. Dew Point Humidity Pressure Visibility Wind Dir Wind Speed Gust Speed Precip Events Conditions
12:53 AM 57.9 °F 54.0 °F 87% 29.54 in 10.0 mi ESE 9.2 mph - 0.06 in Rain Light Rain
1:53 AM 59.0 °F 54.0 °F 83% 29.53 in 9.0 mi South 11.5 mph 17.3 mph 0.04 in Rain Light Rain
2:53 AM 57.9 °F 53.1 °F 84% 29.49 in 10.0 mi SSE 12.7 mph - 0.05 in   Overcast
3:53 AM 59.0 °F 50.0 °F 72% 29.45 in 10.0 mi South 17.3 mph - N/A   Partly Cloudy
4:53 AM 59.0 °F 48.0 °F 67% 29.41 in 10.0 mi South 16.1 mph 24.2 mph N/A   Mostly Cloudy
5:53 AM 60.1 °F 46.9 °F 62% 29.40 in 10.0 mi South 17.3 mph 26.5 mph N/A   Mostly Cloudy
6:53 AM 59.0 °F 46.9 °F 64% 29.39 in 10.0 mi South 17.3 mph - N/A   Overcast
7:53 AM 55.9 °F 52.0 °F 87% 29.42 in 7.0 mi SSW 17.3 mph - 0.04 in Rain Light Rain
8:27 AM 55.4 °F 53.6 °F 94% 29.41 in 8.0 mi SSW 17.3 mph - 0.04 in Rain Light Rain
8:42 AM 53.6 °F 51.8 °F 94% 29.44 in 2.5 mi West 13.8 mph 35.7 mph 0.15 in Rain Heavy Rain
8:45 AM 53.6 °F 50.0 °F 88% 29.44 in 2.5 mi West 12.7 mph 35.7 mph 0.16 in Rain Rain
8:53 AM 53.1 °F 50.0 °F 89% 29.45 in 9.0 mi West 11.5 mph - 0.17 in Rain Light Rain
9:04 AM 51.8 °F 48.2 °F 88% 29.45 in 10.0 mi West 9.2 mph 20.7 mph 0.00 in Rain Light Rain
9:53 AM 51.1 °F 46.9 °F 86% 29.49 in 10.0 mi SW 13.8 mph 17.3 mph 0.01 in   Overcast
10:09 AM 51.8 °F 46.4 °F 82% 29.48 in 10.0 mi SW 13.8 mph 24.2 mph 0.00 in Rain Light Rain
10:18 AM 50.0 °F 46.4 °F 87% 29.47 in 10.0 mi WSW 8.1 mph 20.7 mph 0.00 in Rain Light Rain
10:31 AM 51.8 °F 46.4 °F 82% 29.48 in 10.0 mi SW 13.8 mph - 0.00 in   Overcast
10:53 AM 51.1 °F 46.0 °F 83% 29.50 in 10.0 mi WSW 12.7 mph 26.5 mph 0.00 in   Mostly Cloudy
11:07 AM 51.8 °F 44.6 °F 76% 29.50 in 10.0 mi WSW 12.7 mph 23.0 mph N/A   Mostly Cloudy
11:53 AM 52.0 °F 44.1 °F 74% 29.54 in 10.0 mi WSW 11.5 mph 18.4 mph N/A   Mostly Cloudy
12:53 PM 55.0 °F 39.9 °F 57% 29.56 in 10.0 mi WSW 17.3 mph 26.5 mph N/A   Partly Cloudy
1:53 PM 57.0 °F 37.9 °F 49% 29.57 in 10.0 mi WSW 11.5 mph 29.9 mph N/A   Partly Cloudy
2:53 PM 60.1 °F 36.0 °F 41% 29.57 in 10.0 mi SW 23.0 mph 31.1 mph N/A   Partly Cloudy
3:53 PM 57.9 °F 35.1 °F 42% 29.57 in 10.0 mi SW 19.6 mph 31.1 mph N/A   Mostly Cloudy
4:16 PM 53.6 °F 41.0 °F 62% 29.57 in 10.0 mi WSW 8.1 mph 23.0 mph 0.00 in Rain Light Rain
4:53 PM 54.0 °F 39.9 °F 59% 29.60 in 10.0 mi West 12.7 mph 21.9 mph 0.00 in Rain Light Rain
5:53 PM 55.9 °F 34.0 °F 44% 29.60 in 10.0 mi SSW 20.7 mph 26.5 mph 0.00 in   Partly Cloudy
6:53 PM 54.0 °F 35.1 °F 49% 29.62 in 10.0 mi SSW 15.0 mph - N/A   Scattered Clouds
7:53 PM 54.0 °F 35.1 °F 49% 29.64 in 10.0 mi SSW 13.8 mph - N/A   Overcast
8:53 PM 52.0 °F 36.0 °F 54% 29.65 in 10.0 mi SSW 15.0 mph 23.0 mph N/A   Partly Cloudy
9:53 PM 50.0 °F 36.0 °F 59% 29.67 in 10.0 mi SSW 9.2 mph - N/A   Clear
10:53 PM 48.9 °F 37.9 °F 66% 29.68 in 10.0 mi South 5.8 mph - N/A   Partly Cloudy
11:53 PM 48.9 °F 37.9 °F 66% 29.68 in 10.0 mi South 3.5 mph - N/A   Overcast